| time (UTC) | temp F | wind direction | speed knots | gust knots | rain 1hr in | rain 24hr in | rain mn in | humidity % | barometer mb |
| 20260504043540 | 59 | 63 | 0.9 | 0.9 | 0.00 | 0.00 | 0.00 | 56 | 1013.9 |
| 20260504043038 | 59 | 51 | 0.0 | 0.0 | 0.00 | 0.00 | 0.00 | 56 | 1013.9 |
| 20260504042535 | 59 | 56 | 0.0 | 0.0 | 0.00 | 0.00 | 0.00 | 56 | 1014.1 |
| 20260504042032 | 59 | 14 | 0.9 | 0.9 | 0.00 | 0.00 | 0.00 | 55 | 1013.9 |
| 20260504041527 | 59 | 59 | 0.0 | 0.9 | 0.00 | 0.00 | 0.00 | 56 | 1014.0 |
| 20260504041023 | 59 | 52 | 0.9 | 0.9 | 0.00 | 0.00 | 0.00 | 56 | 1014.0 |
| 20260504040521 | 59 | 49 | 0.9 | 0.9 | 0.00 | 0.00 | 0.00 | 56 | 1014.3 |
| 20260504040018 | 59 | 57 | 0.0 | 0.0 | 0.00 | 0.00 | 0.00 | 56 | 1014.1 |
| 20260504035515 | 59 | 51 | 0.9 | 0.9 | 0.00 | 0.00 | 0.00 | 55 | 1014.4 |
| 20260504035011 | 59 | 75 | 0.0 | 0.9 | 0.00 | 0.00 | 0.00 | 56 | 1014.2 |
| 20260504034509 | 58 | 69 | 0.0 | 0.0 | 0.00 | 0.00 | 0.00 | 55 | 1014.2 |
| 20260504034006 | 58 | 56 | 0.0 | 0.0 | 0.00 | 0.00 | 0.00 | 55 | 1014.2 |
| 20260504033504 | 58 | 62 | 0.0 | 0.0 | 0.00 | 0.00 | 0.00 | 56 | 1014.2 |
| 20260504033001 | 58 | 54 | 0.0 | 0.0 | 0.00 | 0.00 | 0.00 | 56 | 1014.2 |
| 20260504032457 | 58 | 61 | 0.0 | 0.0 | 0.00 | 0.00 | 0.00 | 55 | 1014.4 |
| 20260504031954 | 58 | 56 | 0.0 | 0.0 | 0.00 | 0.00 | 0.00 | 56 | 1014.4 |
| 20260504031451 | 58 | 64 | 0.0 | 0.0 | 0.00 | 0.00 | 0.00 | 57 | 1014.3 |
| 20260504030947 | 58 | 37 | 0.9 | 0.9 | 0.00 | 0.00 | 0.00 | 57 | 1014.2 |
| 20260504030445 | 58 | 67 | 0.0 | 0.0 | 0.00 | 0.00 | 0.00 | 57 | 1014.6 |
| 20260504025940 | 57 | 63 | 0.0 | 0.0 | 0.00 | 0.00 | 0.00 | 58 | 1014.3 |
| 20260504025437 | 57 | 68 | 0.0 | 0.0 | 0.00 | 0.00 | 0.00 | 57 | 1014.3 |
| 20260504024935 | 58 | 69 | 0.0 | 0.0 | 0.00 | 0.00 | 0.00 | 56 | 1014.3 |
| 20260504024432 | 58 | 66 | 0.0 | 0.0 | 0.00 | 0.00 | 0.00 | 57 | 1014.3 |
| 20260504023929 | 58 | 67 | 0.0 | 0.0 | 0.00 | 0.00 | 0.00 | 56 | 1014.4 |
| 20260504023425 | 58 | 67 | 0.0 | 0.0 | 0.00 | 0.00 | 0.00 | 56 | 1014.4 |
| 20260504022921 | 58 | 67 | 0.0 | 0.0 | 0.00 | 0.00 | 0.00 | 56 | 1014.5 |
| 20260504022417 | 58 | 67 | 0.0 | 0.0 | 0.00 | 0.00 | 0.00 | 56 | 1014.5 |
| 20260504021914 | 58 | 67 | 0.0 | 0.0 | 0.00 | 0.00 | 0.00 | 55 | 1014.3 |
| 20260504021411 | 59 | 67 | 0.0 | 0.0 | 0.00 | 0.00 | 0.00 | 54 | 1014.4 |
| 20260504020909 | 59 | 67 | 0.0 | 0.0 | 0.00 | 0.00 | 0.00 | 54 | 1014.3 |
| 20260504020405 | 59 | 67 | 0.0 | 0.0 | 0.00 | 0.00 | 0.00 | 54 | 1014.3 |
| 20260504015901 | 59 | 66 | 0.0 | 0.0 | 0.00 | 0.00 | 0.00 | 53 | 1014.2 |
| 20260504015357 | 60 | 66 | 0.0 | 0.0 | 0.00 | 0.00 | 0.00 | 51 | 1014.1 |
| 20260504014853 | 60 | 64 | 0.0 | 0.0 | 0.00 | 0.00 | 0.00 | 51 | 1014.1 |
| 20260504014349 | 60 | 64 | 0.0 | 0.0 | 0.00 | 0.00 | 0.00 | 50 | 1014.1 |
| 20260504013847 | 60 | 64 | 0.0 | 0.0 | 0.00 | 0.00 | 0.00 | 50 | 1014.0 |
| 20260504013345 | 61 | 64 | 0.0 | 0.0 | 0.00 | 0.00 | 0.00 | 49 | 1013.9 |
| 20260504012841 | 61 | 57 | 0.0 | 0.0 | 0.00 | 0.00 | 0.00 | 49 | 1014.0 |
| 20260504012339 | 61 | 55 | 0.0 | 0.0 | 0.00 | 0.00 | 0.00 | 48 | 1013.8 |
| 20260504011837 | 62 | 59 | 0.0 | 0.0 | 0.00 | 0.00 | 0.00 | 48 | 1013.8 |
| 20260504011333 | 62 | 53 | 0.0 | 0.0 | 0.00 | 0.00 | 0.00 | 47 | 1014.0 |
| 20260504010829 | 63 | 69 | 0.0 | 0.0 | 0.00 | 0.00 | 0.00 | 45 | 1014.1 |
| 20260504010325 | 64 | 70 | 0.0 | 0.0 | 0.00 | 0.00 | 0.00 | 44 | 1014.1 |
| 20260504005821 | 64 | 51 | 0.0 | 0.0 | 0.00 | 0.00 | 0.00 | 43 | 1014.0 |
| 20260504005319 | 65 | 51 | 0.0 | 0.0 | 0.00 | 0.00 | 0.00 | 42 | 1013.8 |
| 20260504004816 | 65 | 44 | 0.9 | 0.9 | 0.00 | 0.00 | 0.00 | 41 | 1014.0 |
| 20260504004314 | 66 | 52 | 0.0 | 0.0 | 0.00 | 0.00 | 0.00 | 41 | 1014.0 |
| 20260504003810 | 66 | 104 | 0.9 | 0.9 | 0.00 | 0.00 | 0.00 | 40 | 1014.0 |
| 20260504003307 | 66 | 52 | 0.0 | 0.0 | 0.00 | 0.00 | 0.00 | 40 | 1014.1 |
| 20260504002803 | 67 | 67 | 0.0 | 0.9 | 0.00 | 0.00 | 0.00 | 38 | 1013.9 |
| 20260504002300 | 67 | 43 | 0.0 | 0.9 | 0.00 | 0.00 | 0.00 | 38 | 1014.1 |
| 20260504001758 | 68 | 354 | 1.7 | 1.7 | 0.00 | 0.00 | 0.00 | 37 | 1014.2 |
| 20260504001255 | 68 | 20 | 1.7 | 2.6 | 0.00 | 0.00 | 0.00 | 37 | 1014.1 |
| 20260504000752 | 68 | 59 | 0.0 | 0.0 | 0.00 | 0.00 | 0.00 | 37 | 1014.2 |
| 20260504000248 | 68 | 49 | 0.0 | 0.9 | 0.00 | 0.00 | 0.00 | 37 | 1014.3 |
| 20260503235747 | 69 | 9 | 0.9 | 1.7 | 0.00 | 0.00 | 0.00 | 35 | 1014.4 |
| 20260503235243 | 69 | 9 | 1.7 | 1.7 | 0.00 | 0.00 | 0.00 | 34 | 1014.3 |
| 20260503234741 | 69 | 39 | 0.9 | 1.7 | 0.00 | 0.00 | 0.00 | 34 | 1014.4 |
| 20260503234239 | 69 | 340 | 0.9 | 1.7 | 0.00 | 0.00 | 0.00 | 34 | 1014.5 |
| 20260503233730 | 70 | 343 | 1.7 | 1.7 | 0.00 | 0.00 | 0.00 | 34 | 1014.5 |
| 20260503233226 | 70 | 328 | 1.7 | 2.6 | 0.00 | 0.00 | 0.00 | 33 | 1014.6 |
| 20260503232723 | 70 | 358 | 0.9 | 1.7 | 0.00 | 0.00 | 0.00 | 33 | 1014.6 |
| 20260503232220 | 70 | 43 | 1.7 | 1.7 | 0.00 | 0.00 | 0.00 | 33 | 1014.6 |
| 20260503231719 | 70 | 297 | 1.7 | 2.6 | 0.00 | 0.00 | 0.00 | 32 | 1014.8 |
| 20260503231215 | 70 | 300 | 5.2 | 6.1 | 0.00 | 0.00 | 0.00 | 31 | 1014.8 |
| 20260503230711 | 70 | 12 | 1.7 | 2.6 | 0.00 | 0.00 | 0.00 | 33 | 1014.9 |
| 20260503230209 | 71 | 353 | 2.6 | 3.5 | 0.00 | 0.00 | 0.00 | 32 | 1015.1 |
| 20260503225706 | 71 | 172 | 2.6 | 5.2 | 0.00 | 0.00 | 0.00 | 33 | 1015.0 |
| 20260503225205 | 71 | 327 | 1.7 | 1.7 | 0.00 | 0.00 | 0.00 | 34 | 1015.3 |
| 20260503224703 | 71 | 320 | 2.6 | 5.2 | 0.00 | 0.00 | 0.00 | 33 | 1015.1 |
| 20260503224200 | 71 | 234 | 2.6 | 3.5 | 0.00 | 0.00 | 0.00 | 33 | 1015.3 |
| 20260503223658 | 71 | 296 | 1.7 | 3.5 | 0.00 | 0.00 | 0.00 | 34 | 1015.0 |
| 20260503223155 | 71 | 242 | 2.6 | 2.6 | 0.00 | 0.00 | 0.00 | 33 | 1015.2 |
| 20260503222652 | 71 | 55 | 2.6 | 3.5 | 0.00 | 0.00 | 0.00 | 33 | 1015.0 |
| 20260503222149 | 71 | 152 | 4.3 | 7.0 | 0.00 | 0.00 | 0.00 | 33 | 1015.1 |
| 20260503221648 | 71 | 155 | 1.7 | 2.6 | 0.00 | 0.00 | 0.00 | 33 | 1015.2 |
| 20260503221145 | 71 | 354 | 1.7 | 1.7 | 0.00 | 0.00 | 0.00 | 34 | 1015.1 |
| 20260503220642 | 72 | 324 | 1.7 | 2.6 | 0.00 | 0.00 | 0.00 | 35 | 1015.2 |
| 20260503220138 | 71 | 84 | 0.9 | 0.9 | 0.00 | 0.00 | 0.00 | 34 | 1015.3 |
| 20260503215635 | 71 | 241 | 5.2 | 6.1 | 0.00 | 0.00 | 0.00 | 33 | 1015.5 |
| 20260503215131 | 72 | 296 | 4.3 | 7.8 | 0.00 | 0.00 | 0.00 | 33 | 1015.5 |
| 20260503214631 | 72 | 286 | 3.5 | 3.5 | 0.00 | 0.00 | 0.00 | 32 | 1015.7 |
| 20260503214126 | 72 | 347 | 4.3 | 6.1 | 0.00 | 0.00 | 0.00 | 31 | 1015.8 |
| 20260503213626 | 71 | 350 | 3.5 | 3.5 | 0.00 | 0.00 | 0.00 | 33 | 1015.8 |
| 20260503213122 | 72 | 177 | 3.5 | 3.5 | 0.00 | 0.00 | 0.00 | 33 | 1015.8 |
| 20260503212619 | 72 | 276 | 6.1 | 8.7 | 0.00 | 0.00 | 0.00 | 32 | 1016.3 |
| 20260503212117 | 73 | 249 | 3.5 | 5.2 | 0.00 | 0.00 | 0.00 | 33 | 1016.0 |
| 20260503211614 | 73 | 182 | 0.9 | 1.7 | 0.00 | 0.00 | 0.00 | 35 | 1016.3 |
| 20260503211109 | 73 | 18 | 2.6 | 3.5 | 0.00 | 0.00 | 0.00 | 32 | 1016.5 |
| 20260503210606 | 73 | 232 | 1.7 | 3.5 | 0.00 | 0.00 | 0.00 | 34 | 1016.5 |
| 20260503205559 | 72 | 317 | 3.5 | 5.2 | 0.00 | 0.00 | 0.00 | 33 | 1016.7 |
| 20260503205055 | 72 | 237 | 1.7 | 2.6 | 0.00 | 0.00 | 0.00 | 34 | 1016.6 |
| 20260503204552 | 72 | 319 | 1.7 | 1.7 | 0.00 | 0.00 | 0.00 | 34 | 1017.0 |
| 20260503204049 | 72 | 292 | 6.1 | 8.7 | 0.00 | 0.00 | 0.00 | 32 | 1017.1 |
| 20260503203546 | 72 | 272 | 4.3 | 5.2 | 0.00 | 0.00 | 0.00 | 33 | 1017.0 |
| 20260503203043 | 72 | 260 | 1.7 | 6.1 | 0.00 | 0.00 | 0.00 | 35 | 1017.2 |
| 20260503202541 | 72 | 64 | 0.9 | 1.7 | 0.00 | 0.00 | 0.00 | 32 | 1017.4 |
| 20260503202039 | 71 | 249 | 1.7 | 1.7 | 0.00 | 0.00 | 0.00 | 39 | 1017.4 |
| 20260503201537 | 71 | 213 | 4.3 | 5.2 | 0.00 | 0.00 | 0.00 | 33 | 1017.6 |
| 20260503201034 | 71 | 345 | 1.7 | 2.6 | 0.00 | 0.00 | 0.00 | 35 | 1017.6 |
| 20260503200530 | 72 | 317 | 4.3 | 7.0 | 0.00 | 0.00 | 0.00 | 32 | 1017.8 |
| 20260503200027 | 71 | 1 | 1.7 | 1.7 | 0.00 | 0.00 | 0.00 | 35 | 1018.2 |
| 20260503195524 | 70 | 194 | 3.5 | 7.0 | 0.00 | 0.00 | 0.00 | 34 | 1018.1 |
| 20260503195021 | 70 | 228 | 7.0 | 7.0 | 0.00 | 0.00 | 0.00 | 32 | 1018.3 |
| 20260503194518 | 70 | 261 | 4.3 | 6.1 | 0.00 | 0.00 | 0.00 | 33 | 1018.3 |
| 20260503194017 | 71 | 272 | 4.3 | 6.1 | 0.00 | 0.00 | 0.00 | 38 | 1018.7 |
| 20260503193514 | 71 | 309 | 3.5 | 3.5 | 0.00 | 0.00 | 0.00 | 33 | 1018.7 |
| 20260503193010 | 70 | 218 | 2.6 | 2.6 | 0.00 | 0.00 | 0.00 | 36 | 1018.7 |
| 20260503192506 | 70 | 265 | 5.2 | 7.0 | 0.00 | 0.00 | 0.00 | 35 | 1018.8 |
| 20260503192001 | 70 | 249 | 2.6 | 2.6 | 0.00 | 0.00 | 0.00 | 39 | 1019.0 |
| 20260503191459 | 70 | 357 | 0.9 | 1.7 | 0.00 | 0.00 | 0.00 | 40 | 1019.1 |
| 20260503190955 | 69 | 208 | 5.2 | 6.1 | 0.00 | 0.00 | 0.00 | 37 | 1019.1 |
| 20260503190453 | 69 | 308 | 4.3 | 6.1 | 0.00 | 0.00 | 0.00 | 36 | 1019.1 |
| 20260503185950 | 69 | 43 | 0.9 | 0.9 | 0.00 | 0.00 | 0.00 | 36 | 1019.1 |
| 20260503185446 | 69 | 278 | 5.2 | 6.1 | 0.00 | 0.00 | 0.00 | 35 | 1019.5 |
| 20260503184946 | 69 | 280 | 2.6 | 2.6 | 0.00 | 0.00 | 0.00 | 35 | 1019.3 |
| 20260503184442 | 69 | 355 | 1.7 | 1.7 | 0.00 | 0.00 | 0.00 | 35 | 1019.5 |
| 20260503183939 | 69 | 306 | 4.3 | 5.2 | 0.00 | 0.00 | 0.00 | 35 | 1019.4 |
| 20260503183435 | 69 | 247 | 2.6 | 3.5 | 0.00 | 0.00 | 0.00 | 37 | 1019.6 |
| 20260503182932 | 69 | 291 | 0.9 | 1.7 | 0.00 | 0.00 | 0.00 | 40 | 1019.7 |
| 20260503182431 | 68 | 198 | 1.7 | 2.6 | 0.00 | 0.00 | 0.00 | 38 | 1019.7 |
| 20260503181928 | 68 | 296 | 3.5 | 6.1 | 0.00 | 0.00 | 0.00 | 34 | 1019.7 |
| 20260503181425 | 68 | 73 | 2.6 | 3.5 | 0.00 | 0.00 | 0.00 | 37 | 1019.8 |
| 20260503180921 | 67 | 281 | 2.6 | 2.6 | 0.00 | 0.00 | 0.00 | 36 | 1019.8 |
| 20260503180420 | 68 | 302 | 5.2 | 8.7 | 0.00 | 0.00 | 0.00 | 38 | 1020.0 |
| 20260503175917 | 67 | 237 | 2.6 | 2.6 | 0.00 | 0.00 | 0.00 | 40 | 1020.1 |
| 20260503175415 | 67 | 232 | 6.1 | 8.7 | 0.00 | 0.00 | 0.00 | 38 | 1020.3 |
| 20260503174910 | 68 | 224 | 3.5 | 5.2 | 0.00 | 0.00 | 0.00 | 37 | 1020.2 |
| 20260503174409 | 67 | 347 | 3.5 | 6.1 | 0.00 | 0.00 | 0.00 | 39 | 1020.3 |
| 20260503173908 | 67 | 215 | 1.7 | 1.7 | 0.00 | 0.00 | 0.00 | 43 | 1020.4 |
| 20260503173405 | 67 | 197 | 2.6 | 2.6 | 0.00 | 0.00 | 0.00 | 42 | 1020.4 |
| 20260503172902 | 67 | 30 | 0.9 | 1.7 | 0.00 | 0.00 | 0.00 | 38 | 1020.4 |
| 20260503172359 | 67 | 311 | 2.6 | 2.6 | 0.00 | 0.00 | 0.00 | 41 | 1020.6 |
| 20260503171855 | 67 | 71 | 1.7 | 1.7 | 0.00 | 0.00 | 0.00 | 38 | 1020.6 |
| 20260503171352 | 66 | 49 | 0.9 | 1.7 | 0.00 | 0.00 | 0.00 | 39 | 1020.8 |
| 20260503170850 | 65 | 242 | 4.3 | 5.2 | 0.00 | 0.00 | 0.00 | 41 | 1020.8 |
| 20260503170346 | 66 | 216 | 2.6 | 2.6 | 0.00 | 0.00 | 0.00 | 40 | 1020.9 |
| 20260503150738 | 61 | 63 | 1.7 | 1.7 | 0.00 | 0.00 | 0.00 | 47 | 1021.9 |
| 20260503150234 | 61 | 85 | 3.5 | 3.5 | 0.00 | 0.00 | 0.00 | 49 | 1021.7 |
| 20260503140159 | 56 | 49 | 1.7 | 1.7 | 0.00 | 0.00 | 0.00 | 64 | 1021.9 |
| 20260503131128 | 50 | 37 | 0.9 | 1.7 | 0.00 | 0.00 | 0.00 | 81 | 1021.9 |
| 20260503130626 | 49 | 70 | 0.9 | 0.9 | 0.00 | 0.00 | 0.00 | 89 | 1022.0 |
| 20260503130123 | 48 | 63 | 0.0 | 0.0 | 0.00 | 0.00 | 0.00 | 97 | 1021.8 |
| 20260503110516 | 38 | 51 | 0.0 | 0.0 | 0.00 | 0.00 | 0.00 | 99 | 1021.1 |
| 20260503090408 | 39 | 51 | 0.0 | 0.0 | 0.00 | 0.00 | 0.00 | 99 | 1020.6 |
| 20260503081335 | 39 | 51 | 0.0 | 0.0 | 0.00 | 0.00 | 0.00 | 98 | 1020.6 |
| 20260503080831 | 39 | 51 | 0.0 | 0.0 | 0.00 | 0.00 | 0.00 | 98 | 1020.7 |
| 20260503080329 | 39 | 51 | 0.0 | 0.0 | 0.00 | 0.00 | 0.00 | 98 | 1020.5 |
| 20260503072805 | 39 | 51 | 0.0 | 0.0 | 0.00 | 0.00 | 0.00 | 98 | 1020.3 |
| 20260503072305 | 40 | 51 | 0.0 | 0.0 | 0.00 | 0.00 | 0.00 | 97 | 1020.3 |
| 20260503071758 | 40 | 51 | 0.0 | 0.0 | 0.00 | 0.00 | 0.00 | 98 | 1020.5 |
| 20260503071255 | 40 | 51 | 0.0 | 0.0 | 0.00 | 0.00 | 0.00 | 97 | 1020.4 |
| 20260503070751 | 40 | 51 | 0.0 | 0.0 | 0.00 | 0.00 | 0.00 | 97 | 1020.4 |
| 20260503070250 | 40 | 51 | 0.0 | 0.0 | 0.00 | 0.00 | 0.00 | 97 | 1020.4 |
| 20260503060214 | 41 | 51 | 0.0 | 0.0 | 0.00 | 0.00 | 0.00 | 96 | 1020.5 |
| 20260503054701 | 41 | 51 | 0.0 | 0.0 | 0.00 | 0.00 | 0.00 | 96 | 1020.4 |
| 20260503054159 | 41 | 51 | 0.0 | 0.0 | 0.00 | 0.00 | 0.00 | 95 | 1020.6 |
| 20260503053656 | 41 | 51 | 0.0 | 0.0 | 0.00 | 0.00 | 0.00 | 95 | 1020.6 |
| 20260503053155 | 41 | 51 | 0.0 | 0.0 | 0.00 | 0.00 | 0.00 | 95 | 1020.6 |
| 20260503052651 | 41 | 51 | 0.0 | 0.0 | 0.00 | 0.00 | 0.00 | 94 | 1020.6 |
| 20260503052147 | 42 | 51 | 0.0 | 0.0 | 0.00 | 0.00 | 0.00 | 94 | 1020.5 |
| 20260503051643 | 42 | 51 | 0.0 | 0.0 | 0.00 | 0.00 | 0.00 | 93 | 1020.4 |
| 20260503051141 | 42 | 51 | 0.0 | 0.0 | 0.00 | 0.00 | 0.00 | 93 | 1020.6 |
| 20260503050637 | 42 | 51 | 0.0 | 0.0 | 0.00 | 0.00 | 0.00 | 93 | 1020.5 |
| 20260503050134 | 43 | 51 | 0.0 | 0.0 | 0.00 | 0.00 | 0.00 | 93 | 1020.5 |
| 20260503045631 | 43 | 51 | 0.0 | 0.0 | 0.00 | 0.00 | 0.00 | 92 | 1020.6 |
| 20260503045128 | 43 | 51 | 0.0 | 0.0 | 0.00 | 0.00 | 0.00 | 92 | 1020.7 |
| 20260503044625 | 44 | 51 | 0.0 | 0.0 | 0.00 | 0.00 | 0.00 | 92 | 1020.3 |
| 20260503044123 | 44 | 51 | 0.0 | 0.0 | 0.00 | 0.00 | 0.00 | 92 | 1020.5 |
| 20260503043619 | 44 | 51 | 0.0 | 0.0 | 0.00 | 0.00 | 0.00 | 92 | 1020.4 |